TimeEDT,TemperatureF,Dew PointF,Humidity,Sea Level PressureIn,VisibilityMPH,Wind Direction,Wind SpeedMPH,Gust SpeedMPH,PrecipitationIn,Events,Conditions,WindDirDegrees,DateUTC
12:15 AM,39.2,35.6,87,29.89,10.0,West,3.5,-,N/A,,Overcast,270,2012-10-16 04:15:00
12:35 AM,39.2,35.6,87,29.89,10.0,West,4.6,-,N/A,,Overcast,260,2012-10-16 04:35:00
12:55 AM,39.2,35.6,87,29.89,10.0,West,3.5,-,N/A,,Overcast,260,2012-10-16 04:55:00
1:15 AM,39.2,35.6,87,29.89,10.0,Calm,Calm,-,N/A,,Overcast,0,2012-10-16 05:15:00
1:35 AM,39.2,35.6,87,29.90,10.0,Calm,Calm,-,N/A,,Overcast,0,2012-10-16 05:35:00
1:55 AM,37.4,35.6,93,29.90,10.0,SE,3.5,-,N/A,,Scattered Clouds,140,2012-10-16 05:55:00
2:15 AM,37.4,35.6,93,29.90,10.0,Calm,Calm,-,N/A,,Scattered Clouds,0,2012-10-16 06:15:00
2:35 AM,35.6,35.6,100,29.91,10.0,Calm,Calm,-,N/A,,Partly Cloudy,0,2012-10-16 06:35:00
2:55 AM,35.6,33.8,93,29.90,10.0,Calm,Calm,-,N/A,,Clear,0,2012-10-16 06:55:00
3:15 AM,35.6,35.6,100,29.90,10.0,Calm,Calm,-,N/A,,Clear,0,2012-10-16 07:15:00
3:35 AM,35.6,35.6,100,29.90,10.0,Calm,Calm,-,N/A,,Clear,0,2012-10-16 07:35:00
3:55 AM,33.8,33.8,100,29.89,10.0,Calm,Calm,-,N/A,,Clear,0,2012-10-16 07:55:00
4:15 AM,35.6,35.6,100,29.89,10.0,Calm,Calm,-,N/A,,Clear,0,2012-10-16 08:15:00
4:35 AM,35.6,35.6,100,29.90,10.0,Calm,Calm,-,N/A,,Clear,0,2012-10-16 08:35:00
4:55 AM,33.8,32.0,93,29.89,10.0,Calm,Calm,-,N/A,,Clear,0,2012-10-16 08:55:00
5:15 AM,33.8,32.0,93,29.89,10.0,Calm,Calm,-,N/A,,Clear,0,2012-10-16 09:15:00
5:35 AM,32.0,32.0,100,29.88,10.0,Calm,Calm,-,N/A,,Clear,0,2012-10-16 09:35:00
5:55 AM,30.2,30.2,100,29.89,10.0,Calm,Calm,-,N/A,,Clear,0,2012-10-16 09:55:00
6:15 AM,32.0,30.2,93,29.90,10.0,Calm,Calm,-,N/A,,Clear,0,2012-10-16 10:15:00
6:35 AM,30.2,30.2,100,29.90,10.0,Calm,Calm,-,N/A,,Clear,0,2012-10-16 10:35:00
6:55 AM,30.2,30.2,100,29.90,10.0,Calm,Calm,-,N/A,,Clear,0,2012-10-16 10:55:00
7:15 AM,30.2,30.2,100,29.90,10.0,Calm,Calm,-,N/A,,Clear,0,2012-10-16 11:15:00
7:35 AM,30.2,28.4,93,29.90,10.0,Calm,Calm,-,N/A,,Clear,0,2012-10-16 11:35:00
7:55 AM,30.2,30.2,100,29.90,10.0,SE,3.5,-,N/A,,Clear,130,2012-10-16 11:55:00
8:15 AM,30.2,28.4,93,29.89,10.0,SE,3.5,-,N/A,,Clear,130,2012-10-16 12:15:00
8:35 AM,30.2,30.2,100,29.88,10.0,ESE,3.5,-,N/A,,Clear,120,2012-10-16 12:35:00
8:55 AM,33.8,33.8,100,29.89,10.0,SE,5.8,-,N/A,,Clear,140,2012-10-16 12:55:00
9:15 AM,33.8,33.8,100,29.89,10.0,SE,3.5,-,N/A,,Clear,140,2012-10-16 13:15:00
9:35 AM,35.6,35.6,100,29.88,10.0,SE,6.9,-,N/A,,Clear,130,2012-10-16 13:35:00
9:55 AM,39.2,39.2,100,29.87,10.0,SE,6.9,-,N/A,,Clear,130,2012-10-16 13:55:00
10:15 AM,39.2,35.6,87,29.87,10.0,SE,10.4,-,N/A,,Mostly Cloudy,140,2012-10-16 14:15:00
10:35 AM,41.0,37.4,87,29.87,10.0,SSE,9.2,-,N/A,,Overcast,150,2012-10-16 14:35:00
10:55 AM,42.8,37.4,81,29.86,10.0,SE,9.2,-,N/A,,Overcast,140,2012-10-16 14:55:00
11:15 AM,42.8,39.2,87,29.85,10.0,SE,10.4,-,N/A,,Overcast,140,2012-10-16 15:15:00
11:35 AM,44.6,39.2,81,29.84,10.0,SE,11.5,-,N/A,,Overcast,140,2012-10-16 15:35:00
11:55 AM,44.6,39.2,81,29.84,10.0,SSE,10.4,-,N/A,,Overcast,150,2012-10-16 15:55:00
12:15 PM,46.4,39.2,76,29.83,10.0,SSE,12.7,-,N/A,,Overcast,160,2012-10-16 16:15:00
12:35 PM,46.4,39.2,76,29.82,10.0,SE,10.4,-,N/A,,Overcast,140,2012-10-16 16:35:00
12:55 PM,46.4,39.2,76,29.82,10.0,SE,12.7,-,N/A,,Overcast,140,2012-10-16 16:55:00
1:15 PM,46.4,39.2,76,29.81,10.0,SSE,10.4,-,N/A,,Overcast,150,2012-10-16 17:15:00
1:35 PM,46.4,39.2,76,29.81,10.0,SSE,10.4,-,N/A,,Overcast,150,2012-10-16 17:35:00
1:55 PM,46.4,41.0,81,29.80,10.0,SSE,8.1,-,N/A,,Overcast,160,2012-10-16 17:55:00
2:15 PM,46.4,41.0,81,29.79,10.0,SSE,10.4,-,N/A,,Overcast,150,2012-10-16 18:15:00
2:35 PM,46.4,42.8,87,29.78,10.0,SSE,9.2,-,N/A,,Overcast,160,2012-10-16 18:35:00
2:55 PM,46.4,42.8,87,29.78,10.0,SSE,8.1,-,N/A,,Overcast,160,2012-10-16 18:55:00
3:15 PM,46.4,42.8,87,29.77,10.0,SE,12.7,-,0.01,,Overcast,140,2012-10-16 19:15:00
3:35 PM,46.4,44.6,93,29.76,10.0,SE,12.7,-,0.02,,Overcast,140,2012-10-16 19:35:00
3:55 PM,44.6,44.6,100,29.76,10.0,SE,11.5,-,0.02,,Overcast,140,2012-10-16 19:55:00
4:15 PM,44.6,44.6,100,29.76,10.0,SE,12.7,-,0.01,,Overcast,140,2012-10-16 20:15:00
4:35 PM,44.6,44.6,100,29.76,10.0,SE,6.9,-,0.02,,Overcast,140,2012-10-16 20:35:00
4:55 PM,44.6,44.6,100,29.74,10.0,SE,11.5,-,0.03,,Overcast,130,2012-10-16 20:55:00
5:15 PM,44.6,44.6,100,29.73,10.0,SE,15.0,-,0.02,,Overcast,130,2012-10-16 21:15:00
5:35 PM,44.6,44.6,100,29.71,10.0,SE,15.0,-,0.03,,Overcast,130,2012-10-16 21:35:00
5:55 PM,44.6,44.6,100,29.69,10.0,ESE,17.3,21.9,0.03,,Overcast,120,2012-10-16 21:55:00
6:15 PM,44.6,42.8,93,29.67,10.0,SE,17.3,25.3,0.01,,Overcast,130,2012-10-16 22:15:00
6:35 PM,44.6,42.8,93,29.68,10.0,ESE,15.0,-,0.01,,Overcast,120,2012-10-16 22:35:00
6:55 PM,44.6,42.8,93,29.70,10.0,ESE,6.9,-,0.01,,Overcast,110,2012-10-16 22:55:00
7:15 PM,44.6,42.8,93,29.69,10.0,East,8.1,-,N/A,,Overcast,100,2012-10-16 23:15:00
7:35 PM,44.6,44.6,100,29.70,10.0,ESE,8.1,-,N/A,,Overcast,110,2012-10-16 23:35:00
7:55 PM,44.6,44.6,100,29.69,10.0,East,10.4,-,N/A,,Overcast,100,2012-10-16 23:55:00
8:15 PM,44.6,44.6,100,29.69,10.0,ESE,11.5,-,N/A,,Overcast,110,2012-10-17 00:15:00
8:35 PM,44.6,44.6,100,29.69,10.0,ESE,9.2,-,N/A,,Overcast,120,2012-10-17 00:35:00
8:55 PM,44.6,42.8,93,29.68,10.0,East,9.2,-,N/A,,Overcast,100,2012-10-17 00:55:00
9:15 PM,44.6,42.8,93,29.68,10.0,East,10.4,-,N/A,,Overcast,100,2012-10-17 01:15:00
9:35 PM,44.6,44.6,100,29.67,10.0,ESE,12.7,-,N/A,,Overcast,120,2012-10-17 01:35:00
9:55 PM,44.6,44.6,100,29.66,10.0,SE,13.8,-,N/A,,Overcast,130,2012-10-17 01:55:00
10:15 PM,46.4,44.6,93,29.66,10.0,SE,12.7,-,N/A,,Overcast,130,2012-10-17 02:15:00
10:35 PM,46.4,46.4,100,29.66,10.0,SE,11.5,-,N/A,,Overcast,130,2012-10-17 02:35:00
10:55 PM,46.4,46.4,100,29.67,10.0,SE,10.4,-,N/A,,Overcast,140,2012-10-17 02:55:00
11:15 PM,46.4,46.4,100,29.66,10.0,SE,10.4,-,N/A,,Overcast,130,2012-10-17 03:15:00
11:35 PM,46.4,44.6,93,29.66,10.0,SE,11.5,-,N/A,,Overcast,130,2012-10-17 03:35:00
11:55 PM,46.4,44.6,93,29.65,10.0,SE,15.0,-,N/A,,Overcast,130,2012-10-17 03:55:00